Location: Banios
(43.0451°N, 0.2335°E)
Time: 13:46:04
(UTC+00:00)

Cosmos 2278 Rocket - Pass Details

Date: 25 January 2021
Orbit: 839 x 847 km, 71.0° (Epoch: 25 February)

Event Time Altitude Azimuth Distance (km) Brightness Sun altitude
Exits shadow 05:45:00 29° 275° (W) 1,508 2.9 -17.5°
Maximum altitude 05:46:00 31° 256° (WSW) 1,451 2.9 -17.3°
Drops below altitude 10° 05:50:53 10° 196° (SSW) 2,459 4.6 -16.4°
Sets 05:53:33 0° 186° (S) 3,388 5.4 -16.0°
